TITAN 3C TRANSTAGE DEB, 1959

Orbit data source: Space-Track

TITAN 3C TRANSTAGE DEB, 1959 is space debris in LEO originally from a launch on Fri, 15 Oct 1965 UTC launched from the Air Force Eastern Test Range (AFETR). Debris objects in space refer to the collection of defunct objects orbiting the Earth. Examples of debris include non-operational satellites, rocket bodies, and fragments generated from explosions, collisions, or faulty payload assembly.

Loading next visibility...
Identifier
1959, 1965-082GU
Orbit
LEO
Country
Flag of USUS
Related business
Manufacturer
Unknown
Mission
Spacecraft
Bus & Motor
Unknown
Mass
Unknown
Launch date (UTC)
1965-10-15 (60 years ago)
Launch vehicle
Unknown
Launch site
Air Force Eastern Test Range (AFETR)
Object type
Payload
Rocket body
Debris
Shape & HBR
Unknown shape, 0.2 m
Radar Cross Section
Small (<0.1 m²)

Expand to show TLE details & history
Last TLE update: 7 hours ago

TLE from 7 hours ago
0 TITAN 3C TRANSTAGE DEB
1  1959U 65082GU  25308.15668502  .00000987  00000-0  19316-3 0  9993
2  1959  31.7903 259.6375 0062371 357.6340   2.3998 14.58730067180879
Epoch: 2025-11-04T03:45Z
TLE epoch observation values (Epoch: 2025-11-04T03:45:37.585Z)
Latitude
0.00002°
Longitude
159.58318°
Altitude
651.817 km
Speed
7.557 km/s
True Right ascension
17h 18m 33s
True Declination
0° 00' 00"
Sunlit
Object was in daylight at epoch
Visualization orbit readout
Latitude
Unknown
Longitude
Unknown
Altitude
Unknown
Speed
Unknown
Apparent Right ascension
Unknown
Apparent Declination
Unknown
Sunlit
N/A
Visualization observer readout
Local Sidereal Time
06:41:45
Azimuth
Unknown
Elevation
Unknown
Doppler factor
Unknown
Orbital elements
Apogee altitude
745.069 km
Perigee altitude
656.764 km
Semi-major axis
7,079.054 km
Eccentricity
0.00624
Inclination
31.7903°
RAAN
259.6375°
Arg. of periapsis
357.634°
True anomaly
2.42996°
Mean anomaly
2.3998°
Eccentric anomaly
2.41486°
Mean motion
3.64402 °/min
Orbital period
98.79 mins
BSTAR
0.00019316

Documentation

Showing up to 5 results
|